EW2719 Weather Reports


time (UTC)temp
C
wind
direction
speed
KPH
gust
KPH
rain 1hr
cm
rain 24hr
cm
rain mn
cm
humidity
%
barometer
mb
20260903071526 15 182 3.2 9.7 0.05 0.15 0.10 95 1009.1
20260903070023 14 161 1.6 6.4 0.05 0.13 0.08 95 1009.3
20260903064521 13 160 0.0 3.2 0.03 0.10 0.05 95 1009.5
20260903063017 13 164 0.0 1.6 0.03 0.10 0.05 95 1009.6
20260903061515 13 163 0.0 8.0 0.05 0.10 0.05 95 1009.7
20260903060014 13 157 0.0 3.2 0.03 0.08 0.05 95 1009.9
20260903054511 12 163 0.0 3.2 0.03 0.08 0.05 95 1010.1
20260903053009 12 169 0.0 1.6 0.03 0.08 0.05 95 1010.2
20260903051504 12 169 0.0 1.6 0.00 0.05 0.03 95 1010.3
20260903050003 12 170 0.0 3.2 0.00 0.05 0.03 95 1010.5
20260903044502 12 170 0.0 1.6 0.00 0.05 0.03 94 1010.6
20260903043002 12 170 0.0 1.6 0.00 0.05 0.03 94 1010.7
20260903041558 12 170 0.0 6.4 0.00 0.05 0.03 94 1010.9
20260903040103 12 177 3.2 8.0 0.00 0.05 0.03 94 1011.1
20260903034555 12 198 1.6 4.8 0.03 0.08 0.03 94 1011.3
20260903033053 12 202 3.2 8.0 0.03 0.08 0.03 94 1011.6
20260903031557 12 204 4.8 8.0 0.03 0.08 0.03 94 1011.8
20260903030051 12 198 1.6 4.8 0.03 0.08 0.03 94 1011.6
20260903024550 12 203 1.6 6.4 0.00 0.05 0.00 94 1011.7
20260903023102 12 205 1.6 6.4 0.00 0.05 0.00 94 1011.9
20260903021548 11 204 3.2 8.0 0.00 0.05 0.00 94 1012.0
20260903020044 11 212 1.6 4.8 0.00 0.05 0.00 94 1012.2
20260903014543 11 217 1.6 3.2 0.00 0.05 0.00 94 1012.3
20260903013042 11 217 0.0 4.8 0.00 0.05 0.00 94 1012.5
20260903011540 11 217 1.6 4.8 0.00 0.05 0.00 93 1012.7
20260903010039 11 215 1.6 4.8 0.00 0.05 0.00 93 1012.7
20260903004538 11 215 3.2 6.4 0.00 0.05 0.00 93 1012.9
20260903003041 11 217 3.2 6.4 0.00 0.05 0.00 93 1013.1
20260903001537 11 219 3.2 6.4 0.00 0.05 0.00 93 1013.0
20260903000036 11 227 3.2 4.8 0.00 0.05 0.00 92 1013.0
20260902234534 11 230 1.6 6.4 0.00 0.05 0.00 92 1013.0
20260902233033 11 240 1.6 6.4 0.00 0.05 0.00 92 1013.1
20260902231550 11 231 3.2 8.0 0.00 0.05 0.00 92 1013.2
20260902230031 11 226 3.2 6.4 0.00 0.05 0.00 92 1013.3
20260902224528 11 230 4.8 8.0 0.00 0.05 0.00 91 1013.4
20260902223027 11 227 3.2 8.0 0.00 0.05 0.00 91 1013.4
20260902221525 11 227 4.8 8.0 0.00 0.05 0.00 91 1013.4
20260902220023 11 230 3.2 6.4 0.00 0.05 0.00 90 1013.5
20260902214522 11 237 1.6 6.4 0.00 0.05 0.05 90 1013.4
20260902213022 11 242 3.2 6.4 0.00 0.05 0.05 89 1013.4
20260902211520 11 227 3.2 8.0 0.00 0.05 0.05 89 1013.4
20260902210020 12 253 4.8 9.7 0.00 0.05 0.05 88 1013.4
20260902204517 12 238 3.2 8.0 0.00 0.05 0.05 88 1013.5
20260902203015 12 253 6.4 11.3 0.00 0.05 0.05 87 1013.5
20260902201520 12 236 4.8 8.0 0.00 0.05 0.05 87 1013.5
20260902200019 12 248 3.2 8.0 0.00 0.05 0.05 86 1013.5
20260902194516 13 250 3.2 9.7 0.00 0.05 0.05 85 1013.4
20260902193013 13 253 3.2 9.7 0.00 0.05 0.05 84 1013.4
20260902191516 13 264 6.4 12.9 0.00 0.05 0.05 84 1013.5
20260902190014 13 254 3.2 11.3 0.00 0.05 0.05 83 1013.6
20260902184512 13 258 4.8 11.3 0.00 0.05 0.05 82 1013.6
20260902183010 14 274 4.8 11.3 0.00 0.05 0.05 82 1013.4
20260902181509 15 279 8.0 12.9 0.00 0.05 0.05 81 1013.3
20260902180008 15 286 6.4 12.9 0.00 0.05 0.05 80 1013.1
20260902174506 16 296 9.7 20.9 0.00 0.05 0.05 78 1012.9
20260902173002 16 297 9.7 17.7 0.00 0.05 0.05 77 1012.8
20260902171603 17 290 11.3 22.5 0.00 0.05 0.05 75 1012.9
20260902170059 17 287 12.9 20.9 0.00 0.05 0.05 76 1012.7
20260902164603 17 294 16.1 22.5 0.00 0.05 0.05 75 1012.7
20260902163102 18 273 16.1 25.7 0.00 0.05 0.05 76 1012.7
20260902161559 18 284 17.7 27.4 0.00 0.05 0.05 77 1012.7
20260902160058 18 292 14.5 27.4 0.00 0.05 0.05 77 1012.7
20260902154608 18 285 20.9 30.6 0.00 0.05 0.05 77 1012.6
20260902153056 18 274 22.5 29.0 0.00 0.05 0.05 80 1012.6
20260902151555 18 305 17.7 29.0 0.00 0.05 0.05 82 1012.7
20260902150055 18 312 19.3 27.4 0.00 0.05 0.05 81 1012.9
20260902144555 18 284 17.7 35.4 0.00 0.05 0.05 77 1012.9
20260902143056 19 277 22.5 35.4 0.00 0.05 0.05 76 1012.7
20260902141554 19 265 20.9 37.0 0.00 0.05 0.05 76 1012.8
20260902140053 19 279 17.7 27.4 0.00 0.05 0.05 76 1012.6
20260902134555 20 265 14.5 30.6 0.00 0.05 0.05 75 1012.5
20260902133051 19 279 17.7 30.6 0.00 0.05 0.05 76 1012.5
20260902131549 18 252 19.3 29.0 0.00 0.05 0.05 76 1012.4
20260902130045 19 253 19.3 29.0 0.00 0.05 0.05 80 1012.5
20260902124540 18 253 16.1 27.4 0.00 0.08 0.05 85 1012.6
20260902123040 17 242 17.7 25.7 0.03 0.08 0.05 86 1012.6
20260902121539 17 238 16.1 29.0 0.03 0.08 0.05 89 1012.8
20260902120037 17 269 16.1 29.0 0.05 0.08 0.05 90 1012.8
20260902114608 17 268 12.9 24.1 0.05 0.08 0.05 90 1012.8
20260902113036 17 252 19.3 30.6 0.03 0.05 0.05 88 1012.7
20260902111535 17 254 22.5 32.2 0.03 0.05 0.05 86 1012.7
20260902110033 17 271 11.3 22.5 0.00 0.05 0.03 90 1012.8
20260902104533 17 259 16.1 29.0 0.00 0.05 0.03 89 1013.0
20260902103032 17 254 9.7 22.5 0.00 0.05 0.03 89 1013.2
20260902101531 17 244 11.3 30.6 0.00 0.05 0.03 89 1013.1
20260902100035 17 264 11.3 29.0 0.00 0.05 0.03 89 1013.2
20260902094530 17 248 14.5 25.7 0.00 0.05 0.03 89 1013.1
20260902093030 17 257 11.3 29.0 0.00 0.05 0.03 88 1013.2
20260902091529 17 229 11.3 27.4 0.00 0.05 0.03 88 1013.1
20260902090029 17 253 14.5 22.5 0.00 0.05 0.03 89 1013.1
20260902084532 17 254 6.4 19.3 0.00 0.05 0.03 89 1012.9
20260902083037 17 265 12.9 30.6 0.00 0.05 0.03 87 1012.8
20260902081526 17 239 9.7 22.5 0.00 0.05 0.03 88 1012.7
20260902080024 17 241 16.1 27.4 0.00 0.05 0.03 90 1012.7
20260902074526 17 240 20.9 35.4 0.00 0.05 0.03 91 1012.6
20260902073022 16 269 11.3 24.1 0.00 0.05 0.03 92 1012.7